Regional Weather Roundup
Issued by NWS Grand Forks, ND

Home | Current Version | Previous Version | Text Only | Print | Product List | Glossary Off
Versions: 1 2 3 4 5 6 7 8 9 10 11 12 13 14 15 16 17 18 19 20 21 22 23 24 25 26 27 28 29 30 31 32 33 34 35 36 37 38 39 40 41 42 43 44 45 46 47 48 49 50

000
ASUS43 KFGF 301710
RWRFGF
PRAIRIE TO PINES  WEATHER ROUNDUP
NATIONAL WEATHER SERVICE EASTERN NORTH DAKOTA/GRAND FORKS ND
1200 PM CDT TUE JUN 30 2015

 **SATELLITE DATA USED TO AUGMENT SKY COVER AT AUTOMATED STATIONS**
 *****  WEATHER ACROSS EASTERN NORTH DAKOTA  *****

CITY           SKY/WX    TMP DP  RH WIND       PRES   REMARKS
GRAND FORKS    CLOUDY    71  57  61 CALM      29.95S
GRAND FRKS AFB CLOUDY    70  61  72 SE2       29.95F
GRAND FRKS NWS   N/A     72 N/A N/A E1          N/A
DEVILS LAKE    CLOUDY    66  59  77 SE7       29.94F
FARGO          PTSUNNY   73  56  54 SE7       29.94F
WAHPETON ARPT  CLOUDY    68  57  68 E3        29.95F
$$

 ***** WEATHER ACROSS CENTRAL AND WESTERN NORTH DAKOTA  *****

CITY           SKY/WX    TMP DP  RH WIND       PRES   REMARKS
BISMARCK       CLOUDY    68  65  90 E8        29.94F
MINOT          CLOUDY    67  63  87 SE3       29.93F FOG
JAMESTOWN      CLOUDY    69  60  73 SE6       29.95S
MINOT AFB      CLOUDY    67  67 100 SE6       29.91F
GARRISON         N/A     68  65  90 S6        29.93F
WILLISTON      CLOUDY    80  53  39 E13       29.91F
DICKINSON      CLOUDY    70  63  78 E9        29.93S
HETTINGER      CLOUDY    71  62  73 E13       29.94F
$$

 *****  OTHER AIRPORT OBSERVATIONS IN OUR AREA  *****

CITY           SKY/WX    TMP DP  RH WIND       PRES   REMARKS
WALHALLA       FAIR      66  66 100 MISG      29.96S
GRAFTON AIRPOR FAIR      68  63  83 SE5       29.96F
VALLEY CITY AR FAIR      66  66 100 E6        29.96R
CANDO          FAIR      64  63  94 SE3       29.96S
CAVALIER APRT  FAIR      68  63  83 CALM      29.95S
GWINNER        NOT AVBL
SHEYENNE NWR     N/A     68  61  77 SE6       29.95
ROLLA          FAIR      66  61  82 SE6       29.98S
 ***** THE ABOVE OBSERVATIONS ARE NON NWS ARE NOT QUALITY
       CONTROLLED AND MAY MIS-REPORT RAIN FOR SNOW...
$$

  *****  WEATHER ACROSS NORTHERN MINNESOTA  *****

CITY           SKY/WX    TMP DP  RH WIND       PRES   REMARKS
FLAG ISLAND    MOSUNNY   64  50  59 SE6       29.99R
WARROAD        MOSUNNY   66  57  72 E5        29.99S
ROSEAU         MOSUNNY   70  57  64 E3        29.98S
HALLOCK        CLOUDY    70  63  78 S5        29.95F
THF RVR FALLS  PTSUNNY   70  59  68 CALM      29.97F
BAUDETTE       MOSUNNY   67  53  61 SE6       29.98S
WASKISH        SUNNY     72  55  56 E5        29.98S
CROOKSTON      PTSUNNY   72  61  68 CALM      29.96F
$$
  *****  WEATHER ACROSS CENTRAL AND WEST MINNESOTA  *****

CITY           SKY/WX    TMP DP  RH WIND       PRES   REMARKS
FOSSTON        PTSUNNY   72  66  83 CALM      29.98R
BEMIDJI        PTSUNNY   69  57  64 W3        29.97S
PARK RAPIDS    PTSUNNY   73  56  54 N5        29.96S
ELBOW LAKE     FAIR      71  57  61 E5        29.96S
WADENA         MOSUNNY   72  55  56 NE3       29.96S
DETROIT LAKES  PTSUNNY   72  54  53 CALM      29.98S
MOORHEAD       PTSUNNY   72  59  64 CALM      29.96S
FERGUS FALLS   CLOUDY    72  57  60 SE3       29.95S
MORRIS MN      PTSUNNY   72  59  64 E7        29.95S
STAPLES        MOSUNNY   72  55  56 N5        29.96S
$$
  *****  WEATHER ELSEWHERE ACROSS MINNESOTA  *****

CITY           SKY/WX    TMP DP  RH WIND       PRES   REMARKS
DULUTH         CLOUDY    59  46  62 SE8       29.99S
INTRNTL FALLS  MOSUNNY   65  49  56 E3        29.99S
ELY            SUNNY     61  46  59 N6        29.99S
CLOQUET        CLOUDY    61  52  72 E3        29.98F
WHEATON        CLOUDY    66  57  72 E9        29.96F
BRAINERD       MOSUNNY   72  54  53 VRB5      29.96F
HIBBING        MOSUNNY   65  50  58 NE5       29.98F
ALEXANDRIA     PTSUNNY   72  55  55 NE5       29.98S
SAINT CLOUD    SUNNY     72  57  59 NE3       29.95S
MINNEAPOLIS    PTSUNNY   71  60  68 VRB7      29.94S
$$

  *****  WEATHER ACROSS SOUTH DAKOTA  *****

CITY           SKY/WX    TMP DP  RH WIND       PRES   REMARKS
SIOUX FALLS    CLOUDY    74  64  71 VRB5      29.94F
BROOKINGS      MOSUNNY   73  63  68 SE6       29.96S
WATERTOWN      PTSUNNY   74  62  66 E8        29.94S
HURON          CLOUDY    69  66  90 SE6       29.90F
SISSETON         N/A     69  61  75 SE8       29.93S
ABERDEEN       CLOUDY    73  65  75 SW5       29.93S
MITCHELL       CLOUDY    69  67  93 NE9       29.93R
PIERRE         PTSUNNY   78  65  63 E15       29.89F
MOBRIDGE       CLOUDY    73  68  84 S8        29.90F
RAPID CITY     CLOUDY    77  64  64 SW3       29.94S
$$

  *****  SOME WEATHER IN NEARBY STATES *****

CITY           SKY/WX    TMP DP  RH WIND       PRES   REMARKS
GLASGOW MT     NOT AVBL
GREAT FALLS MT MOSUNNY   85  51  31 W18G26    29.99F
CHEYENNE WY    SUNNY     85  44  23 S3        30.19S
SCOTTSBLUFF NE MOSUNNY   86  56  35 W5        30.02F
OMAHA NE       CLOUDY    76  66  71 N9        29.94R HAZE
DES MOINES IA  CLOUDY    78  65  63 NW3       29.89F
DAVENPORT IA   SUNNY     76  63  64 VRB7      29.86F
CHICAGO IL     MOSUNNY   72  61  68 NW12      29.82R
EAU CLAIRE WI  PTSUNNY   69  56  62 N9        29.92S
LA CROSSE WI   CLOUDY    68  60  75 W9        29.91S
$$

  *****  SOME NATIONAL WEATHER *****

CITY           SKY/WX    TMP DP  RH WIND       PRES   REMARKS
LA GUARDIA NY  PTSUNNY   79  53  40 S18G28    29.94F
RALEIGH NC     MOSUNNY   89  69  51 SW9       29.95S HX  93
ATLANTA GA     LGT RAIN  74  66  76 W12G21    30.04
NEW ORLEANS LA MOSUNNY   89  71  55 SW14      30.09R HX  95
OKLAHOMA CITY  MOSUNNY   85  68  56 SW8       30.03S
ALBUQUERQUE NM SUNNY     80  48  32 W3        30.25F
SALT LAKE CITY MOSUNNY   92  51  24 SW10      30.06F
LOS ANGELES CA MOSUNNY   74  64  71 W7        29.90F
BOISE ID       SUNNY     86  57  37 W6        30.02S
SEATTLE WA     PTSUNNY   65  58  78 SW5       30.14S
$$

*** WEATHER ACROSS MANITOBA...SASKATCHEWAN AND ONTARIO ***
                ***ONTARIO***

CITY           SKY/WX    TMP DP  RH WIND       PRES   REMARKS
GERALDTON      PTSUNNY   57  41  54 E10       30.00F
THUNDER BAY    MOSUNNY   63  43  48 E9G18     29.97F
SIOUX LOOKOUT  CLOUDY    61  43  51 VRB8      30.01F
TORONTO        CLOUDY    64  59  82 E12G18    29.81F
BIG TROUT LK   MOSUNNY   59  41  51 S9        30.02S
PICKLE LAKE    PTSUNNY   57  37  47 CALM      30.02F
DRYDEN         SUNNY     64  48  55 NE7       30.01F
KENORA         PTSUNNY   64  52  63 VRB3      30.00S
$$
                *** MANITOBA***

CITY           SKY/WX    TMP DP  RH WIND       PRES   REMARKS
BRANDON        CLOUDY    66  61  82 SE5       29.97F
DAUPHIN        SUNNY     68  61  77 E6        29.96F
ISLAND LAKE    PTSUNNY   63  50  63 W6        29.99F
PILOT MOUND      N/A     66  59  77 E3          N/A
THE PAS        CLOUDY    72  59  64 S9        29.92F
THOMPSON       PTSUNNY   64  54  68 SW3       29.94F
WINNIPEG       PTSUNNY   70  61  73 S6        29.96F
LYNN LAKE      MOSUNNY   64  59  82 E8        29.90F
$$
                ***SASKATCHEWAN***

CITY           SKY/WX    TMP DP  RH WIND       PRES   REMARKS
ESTEVAN        LGT RAIN  64  63  94 VRB2      29.95S SMOKE
KINDERSLEY     NOT AVBL
LLOYDMINSTER   CLOUDY    63  59  88 VRB8      29.99S
PRINCE ALBERT  NOT AVBL
REGINA         LGT RAIN  63  61  94 VRB2      29.96R VSB 5/8
YORKTON        MOSUNNY   68  61  77 S10       29.95S
N. BATTLEFORD  NOT AVBL
LA RONGE       SMOKE     70  61  73 VRB2      29.88F VSB 1/2
SASKATOON        N/A     68  55  64 W8        29.97R SMOKE
SWIFT CURRENT  MOSUNNY   70  55  60 E22G28    29.89F HAZE
$$
NOTE: THESE ARE AUTOMATED STATIONS WITH LIMITED QUALITY CONTROL
      "FAIR" INDICATES FEW OR NO CLOUDS BELOW 12,000 FEET WITH NO
      SIGNIFICANT WEATHER AND/OR OBSTRUCTIONS TO VISIBILITY.
      SKY/WX - SKY CONDITION AND SIGNIFICANT WEATHER.
      TMP - AIR TEMPERATURE.    DP   - DEWPOINT TEMPERATURE.
      RH  - RELATIVE HUMIDITY.  PRES - PRESSURE.
      HX  - HEAT INDEX.         WCI  - WIND CHILL INDEX.
$


USA.gov is the U.S. government's official web portal to all federal, state and local government web resources and services.